Location: *
(58.4167°N, 22.5000°E)
Time: 07:08:41
(UTC+00:00)

GP-B - Pass Details

Date: 22 September 2019
Orbit: 631 x 635 km, 89.8° (Epoch: 21 October)

Event Time Altitude Azimuth Distance (km) Brightness Sun altitude
Rises 17:14:56 0° 0° (N) 2,947 6.7 -6.6°
Reaches altitude 10° 17:17:10 10° 1° (N) 2,033 5.9 -6.9°
Maximum altitude 17:21:39 88° 94° (E) 643 3.1 -7.5°
Drops below altitude 10° 17:26:05 10° 182° (S) 2,015 5.6 -8.0°
Sets 17:28:18 0° 182° (S) 2,919 6.4 -8.3°
